When you browse on this site, cookies collect data to enhance your experience and personalize the content and advertising you see.
Visit our Privacy Policy to learn more. By continuing to use the site, you agree to this use of cookies and data.
  • In United Kingdom
  • List of Countries
  • For 7 days
  • Water Temperature
  • Satellite Maps
  • Weather Map
  • Weather Widgets
  • user-avatar
    Login

    Hourly Weather Folkern

    Today, 19 April, Friday

    Time Temperature Precipitation Wind Pressure Humidity
    00:00 +10°C° 0 mm 6 mps 769 mmHg 78%
    01:00 +10°C° 0 mm 6 mps 769 mmHg 79%
    02:00 +10°C° 0 mm 6 mps 769 mmHg 80%
    03:00 +10°C° 0 mm 7 mps 769 mmHg 81%
    04:00 +10°C° 0 mm 7 mps 769 mmHg 82%
    05:00 +9°C° 0 mm 7 mps 769 mmHg 83%
    06:00 +9°C° 0 mm 8 mps 769 mmHg 83%
    07:00 +9°C° 0 mm 8 mps 769 mmHg 84%
    08:00 +9°C° 0 mm 8 mps 769 mmHg 84%
    09:00 +9°C° 0 mm 8 mps 769 mmHg 85%
    10:00 +8°C° 0 mm 9 mps 769 mmHg 85%
    11:00 +8°C° 0 mm 9 mps 769 mmHg 85%
    12:00 +8°C° 0 mm 9 mps 769 mmHg 85%
    13:00 +10°C° 0 mm 9 mps 769 mmHg 84%
    14:00 +9°C° 0 mm 10 mps 769 mmHg 83%
    15:00 +9°C° 0 mm 10 mps 768 mmHg 82%
    16:00 +10°C° 0 mm 9 mps 769 mmHg 83%
    17:00 +10°C° 0 mm 9 mps 769 mmHg 83%
    18:00 +10°C° 0 mm 8 mps 769 mmHg 84%
    19:00 +10°C° 0 mm 8 mps 769 mmHg 85%
    20:00 +10°C° 0 mm 8 mps 769 mmHg 87%
    21:00 +10°C° 0 mm 8 mps 769 mmHg 89%
    22:00 +9°C° 0 mm 8 mps 769 mmHg 90%
    23:00 +9°C° 0 mm 8 mps 770 mmHg 92%

    Tomorrow, 20 April, Saturday

    Time Temperature Precipitation Wind Pressure Humidity
    00:00 +9°C° 0 mm 8 mps 770 mmHg 94%
    01:00 +9°C° 0.1 mm 8 mps 770 mmHg 94%
    02:00 +9°C° 0.1 mm 7 mps 770 mmHg 95%
    03:00 +9°C° 0.1 mm 7 mps 770 mmHg 95%
    04:00 +9°C° 0 mm 7 mps 770 mmHg 96%
    05:00 +9°C° 0 mm 7 mps 770 mmHg 96%
    06:00 +9°C° 0 mm 6 mps 770 mmHg 96%
    07:00 +9°C° 0 mm 6 mps 771 mmHg 96%
    08:00 +9°C° 0 mm 6 mps 771 mmHg 95%
    09:00 +9°C° 0 mm 6 mps 771 mmHg 95%
    10:00 +9°C° 0 mm 6 mps 771 mmHg 93%
    11:00 +9°C° 0 mm 5 mps 771 mmHg 92%
    12:00 +9°C° 0 mm 5 mps 772 mmHg 91%
    13:00 +10°C° 0 mm 4 mps 772 mmHg 91%
    14:00 +10°C° 0 mm 4 mps 772 mmHg 90%
    15:00 +10°C° 0 mm 3 mps 772 mmHg 89%
    16:00 +10°C° 0 mm 3 mps 771 mmHg 89%
    17:00 +10°C° 0 mm 2 mps 771 mmHg 89%
    18:00 +11°C° 0 mm 1 mps 771 mmHg 89%
    19:00 +11°C° 0 mm 1 mps 771 mmHg 89%
    20:00 +11°C° 0 mm 1 mps 771 mmHg 88%
    21:00 +10°C° 0 mm 2 mps 770 mmHg 88%
    22:00 +10°C° 0.2 mm 3 mps 769 mmHg 88%
    23:00 +10°C° 0.2 mm 4 mps 768 mmHg 88%

    Day after tomorrow, 21 April, Sunday

    Time Temperature Precipitation Wind Pressure Humidity
    00:00 +9°C° 0.2 mm 5 mps 768 mmHg 89%
    01:00 +9°C° 1.1 mm 5 mps 766 mmHg 90%
    02:00 +9°C° 1.1 mm 6 mps 765 mmHg 90%
    03:00 +9°C° 1.1 mm 7 mps 764 mmHg 91%
    04:00 +8°C° 0.7 mm 9 mps 763 mmHg 92%
    05:00 +8°C° 0.7 mm 10 mps 762 mmHg 93%
    06:00 +8°C° 0.7 mm 12 mps 761 mmHg 94%
    07:00 +8°C° 0 mm 12 mps 761 mmHg 93%
    08:00 +8°C° 0 mm 12 mps 760 mmHg 93%
    09:00 +8°C° 0 mm 12 mps 759 mmHg 93%
    10:00 +8°C° 0.5 mm 13 mps 759 mmHg 93%
    11:00 +8°C° 0.5 mm 13 mps 759 mmHg 93%
    12:00 +8°C° 0.5 mm 13 mps 758 mmHg 93%
    13:00 +8°C° 0.8 mm 12 mps 758 mmHg 94%
    14:00 +8°C° 0.8 mm 11 mps 757 mmHg 94%
    15:00 +8°C° 0.8 mm 10 mps 757 mmHg 95%
    16:00 +8°C° 0.2 mm 9 mps 756 mmHg 95%
    17:00 +9°C° 0.2 mm 8 mps 756 mmHg 96%
    18:00 +9°C° 0.2 mm 6 mps 755 mmHg 96%
    19:00 +9°C° 0.2 mm 6 mps 755 mmHg 96%
    20:00 +9°C° 0.2 mm 6 mps 755 mmHg 96%
    21:00 +9°C° 0.2 mm 6 mps 755 mmHg 97%
    22:00 +9°C° 0.8 mm 7 mps 754 mmHg 96%
    23:00 +9°C° 0.8 mm 8 mps 754 mmHg 96%

    22 April, Monday

    Time Temperature Precipitation Wind Pressure Humidity
    00:00 +10°C° 0.8 mm 9 mps 753 mmHg 96%
    01:00 +9°C° 0.9 mm 10 mps 752 mmHg 93%
    02:00 +9°C° 0.9 mm 12 mps 752 mmHg 91%
    03:00 +9°C° 0.9 mm 13 mps 751 mmHg 88%
    04:00 +9°C° 0 mm 13 mps 751 mmHg 85%
    05:00 +9°C° 0 mm 13 mps 751 mmHg 82%
    06:00 +9°C° 0 mm 14 mps 751 mmHg 78%
    07:00 +9°C° 0 mm 14 mps 751 mmHg 79%
    08:00 +9°C° 0 mm 13 mps 751 mmHg 80%
    09:00 +9°C° 0 mm 13 mps 751 mmHg 81%
    10:00 +9°C° 0 mm 13 mps 751 mmHg 81%
    11:00 +9°C° 0 mm 12 mps 751 mmHg 81%
    12:00 +9°C° 0 mm 11 mps 751 mmHg 82%
    13:00 +9°C° 0 mm 11 mps 750 mmHg 80%
    14:00 +11°C° 0 mm 11 mps 750 mmHg 78%
    15:00 +11°C° 0 mm 11 mps 750 mmHg 77%
    16:00 +11°C° 0 mm 10 mps 750 mmHg 76%
    17:00 +11°C° 0 mm 10 mps 750 mmHg 74%
    18:00 +11°C° 0 mm 10 mps 750 mmHg 73%
    19:00 +11°C° 0 mm 10 mps 750 mmHg 74%
    20:00 +11°C° 0 mm 9 mps 750 mmHg 75%
    21:00 +11°C° 0 mm 9 mps 750 mmHg 77%
    22:00 +11°C° 0 mm 9 mps 750 mmHg 78%
    23:00 +11°C° 0 mm 8 mps 750 mmHg 79%

    23 April, Tuesday

    Time Temperature Precipitation Wind Pressure Humidity
    00:00 +11°C° 0 mm 8 mps 750 mmHg 81%
    01:00 +10°C° 0 mm 8 mps 750 mmHg 82%
    02:00 +10°C° 0 mm 8 mps 750 mmHg 84%
    03:00 +10°C° 0 mm 7 mps 750 mmHg 85%
    04:00 +10°C° 0 mm 7 mps 750 mmHg 84%
    05:00 +10°C° 0 mm 6 mps 750 mmHg 83%
    06:00 +10°C° 0 mm 6 mps 750 mmHg 82%
    07:00 +9°C° 0.3 mm 5 mps 750 mmHg 83%
    08:00 +9°C° 0.3 mm 5 mps 750 mmHg 83%
    09:00 +9°C° 0.3 mm 5 mps 750 mmHg 83%
    10:00 +10°C° 0 mm 4 mps 750 mmHg 81%
    11:00 +11°C° 0 mm 4 mps 750 mmHg 80%
    12:00 +11°C° 0 mm 4 mps 750 mmHg 78%
    13:00 +11°C° 0 mm 3 mps 749 mmHg 79%
    14:00 +12°C° 0 mm 2 mps 749 mmHg 80%
    15:00 +12°C° 0 mm 2 mps 748 mmHg 81%
    16:00 +12°C° 0 mm 2 mps 748 mmHg 80%
    17:00 +13°C° 0 mm 2 mps 748 mmHg 79%
    18:00 +12°C° 0 mm 3 mps 748 mmHg 78%
    19:00 +12°C° 0 mm 4 mps 748 mmHg 77%
    20:00 +11°C° 0 mm 6 mps 748 mmHg 76%
    21:00 +11°C° 0 mm 7 mps 748 mmHg 75%
    22:00 +11°C° 0.1 mm 8 mps 747 mmHg 78%
    23:00 +10°C° 0.1 mm 8 mps 747 mmHg 80%

    24 April, Wednesday

    Time Temperature Precipitation Wind Pressure Humidity
    00:00 +10°C° 0.1 mm 9 mps 747 mmHg 82%
    01:00 +8°C° 0.6 mm 9 mps 746 mmHg 82%
    02:00 +8°C° 0.6 mm 9 mps 746 mmHg 83%
    03:00 +8°C° 0.6 mm 9 mps 746 mmHg 83%
    04:00 +8°C° 0 mm 9 mps 746 mmHg 82%
    05:00 +8°C° 0 mm 10 mps 746 mmHg 82%
    06:00 +8°C° 0 mm 10 mps 745 mmHg 82%
    07:00 +8°C° 0 mm 9 mps 745 mmHg 82%
    08:00 +8°C° 0 mm 9 mps 745 mmHg 82%
    09:00 +8°C° 0 mm 9 mps 745 mmHg 82%
    10:00 +9°C° 0 mm 8 mps 745 mmHg 82%
    11:00 +10°C° 0 mm 7 mps 745 mmHg 81%
    12:00 +10°C° 0 mm 7 mps 745 mmHg 81%
    13:00 +10°C° 0 mm 7 mps 744 mmHg 79%
    14:00 +11°C° 0 mm 7 mps 744 mmHg 78%
    15:00 +11°C° 0 mm 7 mps 743 mmHg 77%
    16:00 +11°C° 0.1 mm 9 mps 743 mmHg 81%
    17:00 +9°C° 0.1 mm 11 mps 743 mmHg 84%
    18:00 +9°C° 0.1 mm 13 mps 742 mmHg 88%
    19:00 +9°C° 0.1 mm 13 mps 742 mmHg 84%
    20:00 +8°C° 0.1 mm 14 mps 742 mmHg 81%
    21:00 +8°C° 0.1 mm 14 mps 742 mmHg 77%
    22:00 +8°C° 0.1 mm 15 mps 742 mmHg 78%
    23:00 +7°C° 0.1 mm 16 mps 742 mmHg 79%
    Show more